,,PA_Meas_PMT16A,,PR_Meas_QMR101_102,,RH_Meas_QMH101,,SR_Meas_QMS101,,TA_Meas_QMH101,,GenWind,,GenWind,
time,status,PA,status,PR,status,RH,status,SR,status,TA,status,DirAvg,status,SpdAvg,
2012-11-26, 08:24:04,VALID,918.314,VALID,0,VALID,92.8608,VALID,148.484,VALID,20.8356,VALID,21,VALID,0,
2012-11-26, 08:25:04,VALID,918.336,VALID,0,VALID,92.8608,VALID,152.674,VALID,20.8551,VALID,356,VALID,0,
2012-11-26, 08:26:04,VALID,918.309,VALID,0,VALID,92.8456,VALID,156.864,VALID,20.8551,VALID,347,VALID,0,
2012-11-26, 08:27:04,VALID,918.295,VALID,0,VALID,93.0209,VALID,160.839,VALID,20.8941,VALID,343,VALID,0,
2012-11-26, 08:28:04,VALID,918.295,VALID,0,VALID,93.3716,VALID,164.492,VALID,20.9331,VALID,343,VALID,0,
2012-11-26, 08:29:04,VALID,918.287,VALID,0,VALID,93.4707,VALID,167.608,VALID,21.0128,VALID,360,VALID,0,
2012-11-26, 08:30:04,VALID,918.368,VALID,0,VALID,93.2877,VALID,170.509,VALID,21.0112,VALID,360,VALID,0,
2012-11-26, 08:31:04,VALID,918.368,VALID,0,VALID,93.4936,VALID,172.658,VALID,21.0112,VALID,360,VALID,0,
2012-11-26, 08:32:04,VALID,918.375,VALID,0,VALID,93.7451,VALID,174.484,VALID,21.0697,VALID,38,VALID,0,
2012-11-26, 08:33:04,VALID,918.398,VALID,0,VALID,93.3945,VALID,175.881,VALID,21.0697,VALID,26,VALID,0,
2012-11-26, 08:34:04,VALID,918.406,VALID,0,VALID,93.0667,VALID,176.741,VALID,21.0892,VALID,26,VALID,0,
2012-11-26, 08:35:04,VALID,918.399,VALID,0,VALID,92.7389,VALID,177.063,VALID,21.0876,VALID,25,VALID,0,
2012-11-26, 08:36:04,VALID,918.346,VALID,0,VALID,92.472,VALID,177.17,VALID,21.1087,VALID,17,VALID,0,
2012-11-26, 08:37:04,VALID,918.421,VALID,0,VALID,92.2814,VALID,177.493,VALID,21.1087,VALID,310,VALID,0,
2012-11-26, 08:38:04,VALID,918.35,VALID,0,VALID,92.0146,VALID,177.6,VALID,21.1282,VALID,327,VALID,0,
2012-11-26, 08:39:04,VALID,918.409,VALID,0,VALID,92.1595,VALID,178.245,VALID,21.1673,VALID,327,VALID,0,
2012-11-26, 08:40:04,VALID,918.504,VALID,0,VALID,91.6182,VALID,179.212,VALID,21.1673,VALID,341,VALID,0,
2012-11-26, 08:41:04,VALID,918.432,VALID,0,VALID,91.4886,VALID,180.823,VALID,21.1657,VALID,349,VALID,0,
2012-11-26, 08:42:04,VALID,918.457,VALID,0,VALID,90.6653,VALID,182.865,VALID,21.1689,VALID,2,VALID,0,
2012-11-26, 08:43:04,VALID,918.332,VALID,0,VALID,90.7339,VALID,185.766,VALID,21.1868,VALID,346,VALID,0,
2012-11-26, 08:44:04,VALID,918.466,VALID,0,VALID,90.3908,VALID,188.559,VALID,21.2063,VALID,358,VALID,0,
2012-11-26, 08:45:04,VALID,918.306,VALID,0,VALID,90.8787,VALID,191.353,VALID,21.2648,VALID,332,VALID,0,
2012-11-26, 08:46:04,VALID,918.458,VALID,0,VALID,90.6577,VALID,194.468,VALID,21.2843,VALID,24,VALID,0,
2012-11-26, 08:47:04,VALID,918.391,VALID,0,VALID,90.2917,VALID,197.047,VALID,21.3445,VALID,21,VALID,0,
2012-11-26, 08:48:04,VALID,918.417,VALID,0,VALID,89.8877,VALID,199.411,VALID,21.3022,VALID,34,VALID,0,
2012-11-26, 08:49:04,VALID,918.5,VALID,0,VALID,90.7949,VALID,201.345,VALID,21.3819,VALID,26,VALID,0,
2012-11-26, 08:50:04,VALID,918.33,VALID,0,VALID,89.9792,VALID,202.849,VALID,21.3624,VALID,13,VALID,0,
2012-11-26, 08:51:04,VALID,918.481,VALID,0,VALID,91.5191,VALID,204.461,VALID,21.4209,VALID,8,VALID,0,
2012-11-26, 08:52:04,VALID,918.41,VALID,0,VALID,90.8101,VALID,206.502,VALID,21.3998,VALID,308,VALID,0,
2012-11-26, 08:53:04,VALID,918.529,VALID,0,VALID,91.237,VALID,208.543,VALID,21.4794,VALID,308,VALID,0,
2012-11-26, 08:54:04,VALID,918.453,VALID,0,VALID,91.0465,VALID,211.014,VALID,21.5168,VALID,308,VALID,0,
2012-11-26, 08:55:04,VALID,918.455,VALID,0,VALID,91.1379,VALID,213.378,VALID,21.5559,VALID,308,VALID,0,
2012-11-26, 08:56:04,VALID,918.416,VALID,0,VALID,91.1074,VALID,215.527,VALID,21.616,VALID,308,VALID,0,
2012-11-26, 08:57:04,VALID,918.445,VALID,0,VALID,91.3361,VALID,218.75,VALID,21.6551,VALID,327,VALID,0,
2012-11-26, 08:58:04,VALID,918.417,VALID,0,VALID,91.3285,VALID,222.726,VALID,21.6551,VALID,307,VALID,0,
2012-11-26, 08:59:04,VALID,918.298,VALID,0,VALID,91.5496,VALID,226.593,VALID,21.6551,VALID,307,VALID,0,
2012-11-26, 09:00:04,VALID,918.582,VALID,0,VALID,91.6945,VALID,230.461,VALID,21.6924,VALID,307,VALID,0,
2012-11-26, 09:01:04,VALID,918.498,VALID,0,VALID,90.7873,VALID,234.007,VALID,21.6924,VALID,307,VALID,0,
2012-11-26, 09:02:04,VALID,918.438,VALID,0,VALID,89.5446,VALID,237.015,VALID,21.7526,VALID,307,VALID,0,
2012-11-26, 09:03:04,VALID,918.455,VALID,0,VALID,89.2854,VALID,240.453,VALID,21.8112,VALID,307,VALID,0,
2012-11-26, 09:04:04,VALID,918.568,VALID,0,VALID,88.828,VALID,244.966,VALID,21.8697,VALID,307,VALID,0,
2012-11-26, 09:05:04,VALID,918.432,VALID,0,VALID,89.3159,VALID,249.371,VALID,21.9283,VALID,325,VALID,0,
2012-11-26, 09:06:04,VALID,918.482,VALID,0,VALID,89.6056,VALID,253.776,VALID,21.9656,VALID,334,VALID,0,
2012-11-26, 09:07:04,VALID,918.648,VALID,0,VALID,89.1787,VALID,258.933,VALID,21.9851,VALID,345,VALID,0,
2012-11-26, 09:08:04,VALID,918.377,VALID,0,VALID,87.8065,VALID,262.371,VALID,21.9851,VALID,345,VALID,0,
2012-11-26, 09:09:04,VALID,918.51,VALID,0,VALID,87.7074,VALID,267.099,VALID,22.0258,VALID,345,VALID,0,
2012-11-26, 09:10:04,VALID,918.48,VALID,0,VALID,87.1814,VALID,272.578,VALID,22.0242,VALID,310,VALID,0,
2012-11-26, 09:11:04,VALID,916.728,VALID,0,VALID,88.2868,VALID,279.025,VALID,22.0844,VALID,293,VALID,0,
2012-11-26, 09:12:04,VALID,918.53,VALID,0,VALID,88.4469,VALID,286.975,VALID,22.0437,VALID,293,VALID,0,
2012-11-26, 09:13:04,VALID,918.925,VALID,0,VALID,85.9083,VALID,294.604,VALID,22.0242,VALID,293,VALID,0,
2012-11-26, 09:14:04,VALID,918.556,VALID,0,VALID,86.7087,VALID,300.298,VALID,22.0632,VALID,293,VALID,0,
2012-11-26, 09:15:04,VALID,917.721,VALID,0,VALID,88.1343,VALID,306.422,VALID,22.1217,VALID,293,VALID,0,
2012-11-26, 09:16:04,VALID,919.134,VALID,0,VALID,87.2729,VALID,314.373,VALID,22.1413,VALID,293,VALID,0,
2012-11-26, 09:17:04,VALID,918.891,VALID,0,VALID,87.189,VALID,320.927,VALID,22.1234,VALID,279,VALID,0,
2012-11-26, 09:18:04,VALID,918.619,VALID,0,VALID,86.5486,VALID,326.943,VALID,22.1429,VALID,273,VALID,0,
2012-11-26, 09:19:04,VALID,918.668,VALID,0,VALID,87.7836,VALID,330.059,VALID,22.221,VALID,272,VALID,0,
2012-11-26, 09:20:04,VALID,918.653,VALID,0,VALID,86.8841,VALID,333.175,VALID,22.2796,VALID,272,VALID,0,
2012-11-26, 09:21:04,VALID,919.908,VALID,0,VALID,85.954,VALID,334.035,VALID,22.3967,VALID,237,VALID,0,
2012-11-26, 09:22:04,VALID,918.68,VALID,0,VALID,84.9782,VALID,334.572,VALID,22.3771,VALID,252,VALID,0,
2012-11-26, 09:23:04,VALID,918.265,VALID,0,VALID,86.3352,VALID,336.076,VALID,22.4162,VALID,242,VALID,0,
2012-11-26, 09:24:04,VALID,918.719,VALID,0,VALID,83.3849,VALID,338.225,VALID,22.3771,VALID,268,VALID,0,
2012-11-26, 09:25:04,VALID,918.772,VALID,0,VALID,84.0177,VALID,352.622,VALID,22.3186,VALID,255,VALID,0,
2012-11-26, 09:26:04,VALID,918.704,VALID,0,VALID,84.6962,VALID,373.788,VALID,22.3186,VALID,255,VALID,0,
2012-11-26, 09:27:04,VALID,918.786,VALID,0,VALID,85.2145,VALID,387.433,VALID,22.3381,VALID,255,VALID,0,
2012-11-26, 09:28:04,VALID,918.676,VALID,0,VALID,86.1522,VALID,392.805,VALID,22.4162,VALID,255,VALID,0,
2012-11-26, 09:29:04,VALID,918.76,VALID,0,VALID,86.2056,VALID,392.912,VALID,22.5511,VALID,345,VALID,0,
2012-11-26, 09:30:04,VALID,918.744,VALID,0,VALID,85.2679,VALID,396.673,VALID,22.6894,VALID,300,VALID,0,
2012-11-26, 09:31:04,VALID,918.76,VALID,0,VALID,83.4307,VALID,403.227,VALID,22.7267,VALID,304,VALID,0,
2012-11-26, 09:32:04,VALID,918.74,VALID,0,VALID,84.2464,VALID,413.326,VALID,22.7853,VALID,5,VALID,0,
2012-11-26, 09:33:04,VALID,918.904,VALID,0,VALID,83.7204,VALID,429.013,VALID,22.8829,VALID,6,VALID,0,
2012-11-26, 09:34:04,VALID,918.637,VALID,0,VALID,79.497,VALID,448.567,VALID,22.8634,VALID,294,VALID,0,
2012-11-26, 09:35:04,VALID,918.735,VALID,0,VALID,82.4091,VALID,460.493,VALID,22.8243,VALID,294,VALID,0,
2012-11-26, 09:36:04,VALID,918.767,VALID,0,VALID,81.0064,VALID,478.973,VALID,22.9415,VALID,279,VALID,0,
2012-11-26, 09:37:04,VALID,918.661,VALID,0,VALID,81.2885,VALID,487.783,VALID,22.9787,VALID,296,VALID,0,
2012-11-26, 09:38:04,VALID,918.71,VALID,0,VALID,80.5719,VALID,477.576,VALID,22.9805,VALID,323,VALID,0,
2012-11-26, 09:39:04,VALID,918.546,VALID,0,VALID,78.5898,VALID,458.451,VALID,23.0195,VALID,291,VALID,0,
2012-11-26, 09:40:04,VALID,918.623,VALID,0,VALID,77.6216,VALID,383.995,VALID,22.961,VALID,298,VALID,0,
2012-11-26, 09:41:04,VALID,918.824,VALID,0,VALID,80.2517,VALID,371.854,VALID,22.8634,VALID,306,VALID,0,
2012-11-26, 09:42:04,VALID,918.57,VALID,0,VALID,81.5248,VALID,379.59,VALID,22.8812,VALID,306,VALID,0,
2012-11-26, 09:43:04,VALID,918.691,VALID,0,VALID,80.2746,VALID,380.449,VALID,22.9219,VALID,301,VALID,0,
2012-11-26, 09:44:04,VALID,918.755,VALID,0,VALID,77.0575,VALID,388.185,VALID,22.9202,VALID,306,VALID,0,
2012-11-26, 09:45:04,VALID,918.588,VALID,0,VALID,80.0306,VALID,406.02,VALID,22.9415,VALID,312,VALID,0,
2012-11-26, 09:46:04,VALID,918.604,VALID,0,VALID,79.5122,VALID,572.876,VALID,22.8829,VALID,299,VALID,0,
2012-11-26, 09:47:04,VALID,918.612,VALID,0,VALID,78.9786,VALID,528.181,VALID,22.8812,VALID,279,VALID,0,
2012-11-26, 09:48:04,VALID,918.658,VALID,0,VALID,80.6481,VALID,530.437,VALID,22.961,VALID,305,VALID,0,
2012-11-26, 09:49:04,VALID,919.341,VALID,0,VALID,82.0966,VALID,520.338,VALID,23.0976,VALID,271,VALID,0,
2012-11-26, 09:50:04,VALID,918.605,VALID,0,VALID,81.5553,VALID,472.311,VALID,23.2733,VALID,268,VALID,0,
2012-11-26, 09:51:04,VALID,918.59,VALID,0,VALID,81.5477,VALID,478.543,VALID,23.4472,VALID,264,VALID,0,
2012-11-26, 09:52:04,VALID,918.502,VALID,0,VALID,80.6176,VALID,472.741,VALID,23.6247,VALID,329,VALID,0,
2012-11-26, 09:53:04,VALID,918.569,VALID,0,VALID,79.1768,VALID,491.543,VALID,23.74,VALID,344,VALID,0,
2012-11-26, 09:54:04,VALID,918.566,VALID,0,VALID,79.5122,VALID,477.361,VALID,23.7223,VALID,9,VALID,0,
2012-11-26, 09:55:04,VALID,918.47,VALID,0,VALID,80.3965,VALID,452.972,VALID,23.6247,VALID,44,VALID,0,
2012-11-26, 09:56:04,VALID,918.564,VALID,0,VALID,80.1374,VALID,444.377,VALID,23.488,VALID,39,VALID,0,
2012-11-26, 09:57:04,VALID,918.471,VALID,0,VALID,82.7979,VALID,390.226,VALID,23.3727,VALID,67,VALID,0,
2012-11-26, 09:58:04,VALID,918.598,VALID,0,VALID,80.6939,VALID,341.341,VALID,23.2147,VALID,73,VALID,0,
2012-11-26, 09:59:04,VALID,918.596,VALID,0,VALID,82.0051,VALID,331.563,VALID,23.1171,VALID,102,VALID,0,
2012-11-26, 10:00:04,VALID,918.62,VALID,0,VALID,81.3723,VALID,333.605,VALID,23.0781,VALID,88,VALID,0,
2012-11-26, 10:01:04,VALID,918.51,VALID,0,VALID,83.7737,VALID,339.729,VALID,23.1154,VALID,113,VALID,0,
2012-11-26, 10:02:04,VALID,918.593,VALID,0,VALID,80.7777,VALID,350.688,VALID,23.2147,VALID,39,VALID,0,
2012-11-26, 10:03:04,VALID,918.594,VALID,0,VALID,81.2885,VALID,374.54,VALID,23.1757,VALID,40,VALID,0,
2012-11-26, 10:04:04,VALID,916.88,VALID,0,VALID,81.8069,VALID,465.865,VALID,23.1952,VALID,40,VALID,0,
2012-11-26, 10:05:04,VALID,918.664,VALID,0,VALID,82.2185,VALID,476.931,VALID,23.2538,VALID,25,VALID,0,
2012-11-26, 10:06:04,VALID,918.75,VALID,0,VALID,81.8831,VALID,485.849,VALID,23.3123,VALID,9,VALID,0,
2012-11-26, 10:07:04,VALID,918.585,VALID,0,VALID,81.7611,VALID,518.618,VALID,23.3709,VALID,44,VALID,0,
2012-11-26, 10:08:04,VALID,918.523,VALID,0,VALID,81.5172,VALID,540.966,VALID,23.3691,VALID,50,VALID,0,
2012-11-26, 10:09:04,VALID,918.578,VALID,0,VALID,79.7867,VALID,514.321,VALID,23.449,VALID,32,VALID,0,
2012-11-26, 10:10:04,VALID,918.7,VALID,0,VALID,81.1513,VALID,459.633,VALID,23.3709,VALID,70,VALID,0,
2012-11-26, 10:11:04,VALID,918.542,VALID,0,VALID,81.6468,VALID,365.085,VALID,23.3301,VALID,42,VALID,0,
2012-11-26, 10:12:04,VALID,918.521,VALID,0,VALID,81.6697,VALID,354.448,VALID,23.2928,VALID,55,VALID,0,
2012-11-26, 10:13:04,VALID,918.563,VALID,0,VALID,82.1957,VALID,364.978,VALID,23.2715,VALID,28,VALID,0,
2012-11-26, 10:14:04,VALID,918.512,VALID,0,VALID,82.6073,VALID,382.598,VALID,23.4472,VALID,28,VALID,0,
2012-11-26, 10:15:04,VALID,918.483,VALID,0,VALID,80.7548,VALID,380.664,VALID,23.4667,VALID,356,VALID,0,
2012-11-26, 10:16:04,VALID,918.468,VALID,0,VALID,81.1741,VALID,367.664,VALID,23.4277,VALID,292,VALID,0,
2012-11-26, 10:17:04,VALID,918.546,VALID,0,VALID,82.554,VALID,409.458,VALID,23.4277,VALID,8,VALID,0,
2012-11-26, 10:18:04,VALID,918.458,VALID,0,VALID,78.3687,VALID,436.211,VALID,23.5058,VALID,286,VALID,0,
2012-11-26, 10:19:04,VALID,918.508,VALID,0,VALID,80.0535,VALID,450.931,VALID,23.5058,VALID,286,VALID,0,
2012-11-26, 10:20:04,VALID,918.382,VALID,0,VALID,79.7409,VALID,440.509,VALID,23.6034,VALID,7,VALID,0,
2012-11-26, 10:21:04,VALID,918.77,VALID,0,VALID,78.4983,VALID,434.814,VALID,23.6424,VALID,12,VALID,0,
2012-11-26, 10:22:04,VALID,918.373,VALID,0,VALID,79.2683,VALID,486.279,VALID,23.662,VALID,12,VALID,0,
2012-11-26, 10:23:04,VALID,918.336,VALID,0,VALID,81.4028,VALID,507.874,VALID,23.662,VALID,43,VALID,0,
2012-11-26, 10:24:04,VALID,918.365,VALID,0,VALID,81.0293,VALID,499.601,VALID,23.7596,VALID,1,VALID,0,
2012-11-26, 10:25:04,VALID,918.372,VALID,0,VALID,77.4463,VALID,469.733,VALID,23.7596,VALID,318,VALID,0,
2012-11-26, 10:26:04,VALID,918.302,VALID,0,VALID,79.2454,VALID,449.964,VALID,23.6815,VALID,358,VALID,0,
2012-11-26, 10:27:04,VALID,918.565,VALID,0,VALID,78.6279,VALID,438.575,VALID,23.7205,VALID,44,VALID,0,
2012-11-26, 10:28:04,VALID,918.319,VALID,0,VALID,77.0499,VALID,502.61,VALID,23.701,VALID,33,VALID,0,
2012-11-26, 10:29:04,VALID,918.295,VALID,0,VALID,77.6521,VALID,519.048,VALID,23.6424,VALID,63,VALID,0,
2012-11-26, 10:30:04,VALID,918.288,VALID,0,VALID,77.7741,VALID,470.162,VALID,23.6034,VALID,41,VALID,0,
2012-11-26, 10:31:04,VALID,918.801,VALID,0,VALID,77.21,VALID,453.939,VALID,23.6815,VALID,41,VALID,0,
2012-11-26, 10:32:04,VALID,918.163,VALID,0,VALID,79.2454,VALID,438.252,VALID,23.7986,VALID,48,VALID,0,
2012-11-26, 10:33:04,VALID,918.164,VALID,0,VALID,78.3611,VALID,439.757,VALID,23.9158,VALID,66,VALID,0,
2012-11-26, 10:34:04,VALID,918.884,VALID,0,VALID,79.3826,VALID,453.402,VALID,23.9353,VALID,66,VALID,0,
2012-11-26, 10:35:04,VALID,918.132,VALID,0,VALID,77.0575,VALID,456.303,VALID,24.0524,VALID,313,VALID,0,
2012-11-26, 10:36:04,VALID,918.157,VALID,0,VALID,76.5772,VALID,443.195,VALID,24.0719,VALID,309,VALID,0,
2012-11-26, 10:37:04,VALID,918.104,VALID,0,VALID,75.9292,VALID,414.615,VALID,23.9548,VALID,318,VALID,0,
2012-11-26, 10:38:04,VALID,918.243,VALID,0,VALID,78.3687,VALID,402.797,VALID,24.0134,VALID,325,VALID,0,
2012-11-26, 10:39:04,VALID,918.117,VALID,0,VALID,76.7144,VALID,398.392,VALID,24.0719,VALID,28,VALID,0,
2012-11-26, 10:40:04,VALID,918.083,VALID,0,VALID,78.0485,VALID,427.293,VALID,24.111,VALID,338,VALID,0,
2012-11-26, 10:41:04,VALID,918.169,VALID,0,VALID,76.6535,VALID,417.409,VALID,24.1891,VALID,23,VALID,0,
2012-11-26, 10:42:04,VALID,918.154,VALID,0,VALID,77.6292,VALID,474.782,VALID,24.1891,VALID,358,VALID,0,
2012-11-26, 10:43:04,VALID,918.128,VALID,0,VALID,76.2265,VALID,436.104,VALID,24.2281,VALID,33,VALID,0,
2012-11-26, 10:44:04,VALID,918.109,VALID,0,VALID,76.2647,VALID,437.823,VALID,24.15,VALID,23,VALID,0,
2012-11-26, 10:45:04,VALID,918.115,VALID,0,VALID,77.2938,VALID,440.724,VALID,24.111,VALID,29,VALID,0,
2012-11-26, 10:46:04,VALID,918.284,VALID,0,VALID,79.4207,VALID,443.625,VALID,24.1891,VALID,28,VALID,0,
2012-11-26, 10:47:04,VALID,918.13,VALID,0,VALID,79.2302,VALID,494.552,VALID,24.3648,VALID,17,VALID,0,
2012-11-26, 10:48:04,VALID,918.183,VALID,0,VALID,77.0346,VALID,484.237,VALID,24.5992,VALID,352,VALID,0,
2012-11-26, 10:49:04,VALID,918.257,VALID,0,VALID,77.1642,VALID,504.114,VALID,24.7163,VALID,352,VALID,0,
2012-11-26, 10:50:04,VALID,918.102,VALID,0,VALID,75.6777,VALID,524.313,VALID,24.814,VALID,352,VALID,0,
2012-11-26, 10:51:04,VALID,918.193,VALID,0,VALID,76.4095,VALID,547.52,VALID,24.9897,VALID,352,VALID,0,
2012-11-26, 10:52:04,VALID,918.051,VALID,0,VALID,71.3857,VALID,591.893,VALID,25.1264,VALID,352,VALID,0,
2012-11-26, 10:53:04,VALID,918.032,VALID,0,VALID,69.9982,VALID,592.216,VALID,25.2046,VALID,286,VALID,0,
2012-11-26, 10:54:04,VALID,918.321,VALID,0,VALID,70.0363,VALID,603.927,VALID,25.1655,VALID,279,VALID,0,
2012-11-26, 10:55:04,VALID,917.998,VALID,0,VALID,72.5673,VALID,638.953,VALID,25.0874,VALID,237,VALID,0,
2012-11-26, 10:56:04,VALID,917.865,VALID,0,VALID,72.4911,VALID,704.814,VALID,24.9507,VALID,258,VALID,0,
2012-11-26, 10:57:04,VALID,917.998,VALID,0,VALID,73.3525,VALID,731.03,VALID,24.8726,VALID,347,VALID,0,
2012-11-26, 10:58:04,VALID,918.558,VALID,0,VALID,75.6777,VALID,730.385,VALID,25.0483,VALID,258,VALID,0,
2012-11-26, 10:59:04,VALID,918.014,VALID,0,VALID,72.4377,VALID,697.293,VALID,25.1655,VALID,289,VALID,0,
2012-11-26, 11:00:04,VALID,918.533,VALID,0,VALID,70.3565,VALID,704.599,VALID,25.2241,VALID,261,VALID,0,
2012-11-26, 11:01:04,VALID,918.092,VALID,0,VALID,70.8368,VALID,723.831,VALID,25.185,VALID,254,VALID,0,
2012-11-26, 11:02:04,VALID,918.089,VALID,0,VALID,71.744,VALID,771.857,VALID,25.3413,VALID,25,VALID,0,
2012-11-26, 11:03:04,VALID,918.655,VALID,0,VALID,69.4951,VALID,775.725,VALID,25.5366,VALID,349,VALID,0,
2012-11-26, 11:04:04,VALID,918.036,VALID,0,VALID,69.091,VALID,809.032,VALID,25.5952,VALID,273,VALID,0,
2012-11-26, 11:05:04,VALID,917.989,VALID,0,VALID,70.3413,VALID,729.633,VALID,25.6538,VALID,250,VALID,0,
2012-11-26, 11:06:04,VALID,917.984,VALID,0,VALID,66.9565,VALID,718.352,VALID,25.732,VALID,262,VALID,0,
2012-11-26, 11:07:04,VALID,917.966,VALID,0,VALID,69.9753,VALID,848.893,VALID,25.732,VALID,269,VALID,0,
2012-11-26, 11:08:04,VALID,917.933,VALID,0,VALID,67.3834,VALID,847.818,VALID,25.9468,VALID,219,VALID,0,
2012-11-26, 11:09:04,VALID,917.926,VALID,0,VALID,69.4722,VALID,905.084,VALID,26.0035,VALID,297,VALID,0,
2012-11-26, 11:10:04,VALID,917.932,VALID,0,VALID,70.3946,VALID,885.637,VALID,26.2008,VALID,353,VALID,0,
2012-11-26, 11:11:04,VALID,917.873,VALID,0,VALID,68.0466,VALID,906.481,VALID,26.3746,VALID,258,VALID,0,
2012-11-26, 11:12:04,VALID,917.896,VALID,0,VALID,64.273,VALID,910.456,VALID,26.5525,VALID,251,VALID,0,
2012-11-26, 11:13:04,VALID,917.892,VALID,0,VALID,65.569,VALID,899.497,VALID,26.4528,VALID,252,VALID,0,
2012-11-26, 11:14:04,VALID,917.912,VALID,0,VALID,64.5017,VALID,858.67,VALID,26.533,VALID,252,VALID,0,
2012-11-26, 11:15:04,VALID,917.793,VALID,0,VALID,64.6161,VALID,852.008,VALID,26.5114,VALID,328,VALID,0,
2012-11-26, 11:16:04,VALID,917.843,VALID,0,VALID,64.4331,VALID,851.686,VALID,26.4353,VALID,255,VALID,0,
2012-11-26, 11:17:04,VALID,917.818,VALID,0,VALID,64.6694,VALID,846.421,VALID,26.3376,VALID,250,VALID,0,
2012-11-26, 11:18:04,VALID,917.784,VALID,0,VALID,65.7748,VALID,855.661,VALID,26.2399,VALID,273,VALID,0.405859,
2012-11-26, 11:19:04,VALID,917.783,VALID,0,VALID,68.6489,VALID,868.984,VALID,26.2183,VALID,13,VALID,0,
2012-11-26, 11:20:04,VALID,917.719,VALID,0,VALID,65.4775,VALID,872.637,VALID,26.3356,VALID,219,VALID,0,
2012-11-26, 11:21:04,VALID,917.711,VALID,0,VALID,68.6107,VALID,847.173,VALID,26.4723,VALID,259,VALID,0,
2012-11-26, 11:22:04,VALID,917.679,VALID,0,VALID,64.578,VALID,835.14,VALID,26.57,VALID,198,VALID,0,
2012-11-26, 11:23:04,VALID,917.652,VALID,0,VALID,66.4533,VALID,848.678,VALID,26.7849,VALID,193,VALID,0,
2012-11-26, 11:24:04,VALID,917.618,VALID,0,VALID,65.2107,VALID,885.53,VALID,26.9022,VALID,21,VALID,0,
2012-11-26, 11:25:04,VALID,917.605,VALID,0,VALID,66.4686,VALID,907.448,VALID,26.8631,VALID,54,VALID,0,
2012-11-26, 11:26:04,VALID,917.592,VALID,0,VALID,64.6389,VALID,707.93,VALID,26.7047,VALID,5,VALID,0,
2012-11-26, 11:27:04,VALID,917.576,VALID,0,VALID,67.4901,VALID,986.632,VALID,26.8415,VALID,5,VALID,0,
2012-11-26, 11:28:04,VALID,917.549,VALID,0,VALID,64.0214,VALID,1027.35,VALID,27.115,VALID,5,VALID,0,
2012-11-26, 11:29:04,VALID,917.534,VALID,0,VALID,64.2425,VALID,853.62,VALID,27.3104,VALID,5,VALID,0,
2012-11-26, 11:30:04,VALID,917.535,VALID,0,VALID,63.869,VALID,832.024,VALID,27.3907,VALID,34,VALID,0,
2012-11-26, 11:31:04,VALID,917.52,VALID,0,VALID,64.6618,VALID,469.625,VALID,27.6252,VALID,32,VALID,0,
2012-11-26, 11:32:04,VALID,917.478,VALID,0,VALID,63.8918,VALID,451.575,VALID,27.6252,VALID,30,VALID,0,
2012-11-26, 11:33:04,VALID,917.437,VALID,0,VALID,62.8856,VALID,637.663,VALID,27.5645,VALID,27,VALID,0,
2012-11-26, 11:34:04,VALID,917.413,VALID,0,VALID,59.92,VALID,976.21,VALID,27.584,VALID,323,VALID,0,
2012-11-26, 11:35:04,VALID,917.415,VALID,0,VALID,64.4941,VALID,991.574,VALID,27.293,VALID,290,VALID,0,
2012-11-26, 11:36:04,VALID,917.366,VALID,0,VALID,63.4421,VALID,973.847,VALID,27.041,VALID,45,VALID,0,
2012-11-26, 11:37:04,VALID,917.358,VALID,0,VALID,65.447,VALID,977.714,VALID,26.9608,VALID,316,VALID,0,
2012-11-26, 11:38:04,VALID,917.346,VALID,0,VALID,64.9591,VALID,972.235,VALID,27.0194,VALID,6,VALID,0,
2012-11-26, 11:39:04,VALID,917.336,VALID,0,VALID,64.6237,VALID,959.127,VALID,27.0389,VALID,120,VALID,0,
2012-11-26, 11:40:04,VALID,917.318,VALID,0,VALID,64.517,VALID,920.878,VALID,27.1757,VALID,335,VALID,0,
2012-11-26, 11:41:04,VALID,917.304,VALID,0,VALID,66.3618,VALID,936.135,VALID,27.3321,VALID,80,VALID,0,
2012-11-26, 11:42:04,VALID,917.321,VALID,0,VALID,64.0443,VALID,919.696,VALID,27.4298,VALID,76,VALID,0,
2012-11-26, 11:43:04,VALID,917.291,VALID,0,VALID,64.4102,VALID,930.978,VALID,27.4689,VALID,39,VALID,0,
2012-11-26, 11:44:04,VALID,917.275,VALID,0,VALID,64.9286,VALID,968.367,VALID,27.4472,VALID,34,VALID,0,
2012-11-26, 11:45:04,VALID,917.254,VALID,0,VALID,66.8421,VALID,936.35,VALID,27.5861,VALID,342,VALID,0,
2012-11-26, 11:46:04,VALID,917.252,VALID,0,VALID,64.921,VALID,940.97,VALID,27.508,VALID,348,VALID,0,
2012-11-26, 11:47:04,VALID,917.237,VALID,0,VALID,64.5093,VALID,941.614,VALID,27.5666,VALID,332,VALID,0,
2012-11-26, 11:48:04,VALID,917.236,VALID,0,VALID,62.2147,VALID,960.631,VALID,27.4082,VALID,324,VALID,0,
2012-11-26, 11:49:04,VALID,917.172,VALID,0,VALID,64.0367,VALID,966.648,VALID,27.2518,VALID,25,VALID,0,
2012-11-26, 11:50:04,VALID,917.204,VALID,0,VALID,62.7636,VALID,950.854,VALID,27.3712,VALID,194,VALID,0,
2012-11-26, 11:51:04,VALID,917.154,VALID,0,VALID,62.7865,VALID,947.738,VALID,27.5275,VALID,193,VALID,0,
2012-11-26, 11:52:04,VALID,917.141,VALID,0,VALID,61.9631,VALID,934.738,VALID,27.7599,VALID,72,VALID,0,
2012-11-26, 11:53:04,VALID,917.107,VALID,0,VALID,61.1779,VALID,942.796,VALID,27.6817,VALID,222,VALID,0,
2012-11-26, 11:54:04,VALID,917.083,VALID,0,VALID,62.3519,VALID,907.77,VALID,27.5059,VALID,198,VALID,0,
2012-11-26, 11:55:04,VALID,917.104,VALID,0,VALID,61.5591,VALID,906.696,VALID,27.5645,VALID,194,VALID,0,
2012-11-26, 11:56:04,VALID,917.064,VALID,0,VALID,64.9058,VALID,869.521,VALID,27.6622,VALID,301,VALID,0,
2012-11-26, 11:57:04,VALID,917.077,VALID,0,VALID,63.7318,VALID,849,VALID,27.5275,VALID,263,VALID,0,
2012-11-26, 11:58:04,VALID,917.089,VALID,0,VALID,63.686,VALID,844.165,VALID,27.4298,VALID,274,VALID,0,
2012-11-26, 11:59:04,VALID,917.055,VALID,0,VALID,65.6529,VALID,770.461,VALID,27.3495,VALID,9,VALID,0,
2012-11-26, 12:00:04,VALID,917.083,VALID,0,VALID,69.1215,VALID,517.007,VALID,27.2323,VALID,24,VALID,0,
2012-11-26, 12:01:04,VALID,917.071,VALID,0,VALID,68.748,VALID,539.569,VALID,27.33,VALID,37,VALID,0,
2012-11-26, 12:02:04,VALID,917.045,VALID,0,VALID,68.5955,VALID,696.541,VALID,27.3886,VALID,26,VALID,0,
2012-11-26, 12:03:04,VALID,917.062,VALID,0,VALID,67.8027,VALID,539.677,VALID,27.4277,VALID,43,VALID,0,
2012-11-26, 12:04:04,VALID,916.99,VALID,0,VALID,69.3731,VALID,616.605,VALID,27.4277,VALID,33,VALID,0,
2012-11-26, 12:05:04,VALID,917.008,VALID,0,VALID,68.4354,VALID,430.087,VALID,27.5645,VALID,17,VALID,0,
2012-11-26, 12:06:04,VALID,916.996,VALID,0,VALID,65.7062,VALID,871.563,VALID,27.4863,VALID,324,VALID,0,
2012-11-26, 12:07:04,VALID,916.958,VALID,0,VALID,69.4493,VALID,986.74,VALID,27.5275,VALID,349,VALID,0,
2012-11-26, 12:08:04,VALID,916.955,VALID,0,VALID,67.4749,VALID,1001.24,VALID,27.4082,VALID,4,VALID,0,
2012-11-26, 12:09:04,VALID,916.941,VALID,0,VALID,68.2524,VALID,619.076,VALID,27.5059,VALID,35,VALID,0,
2012-11-26, 12:10:04,VALID,916.928,VALID,0,VALID,69.152,VALID,405.375,VALID,27.5059,VALID,61,VALID,0,
2012-11-26, 12:11:04,VALID,916.896,VALID,0,VALID,68.2753,VALID,273.867,VALID,27.4082,VALID,105,VALID,0,